Location: Possagno
(45.8500°N, 11.8667°E)
Time: 12:01:38
(UTC+00:00)

Cosmos 540 Rocket - Pass Details

Date: 07 June 2020
Orbit: 741 x 752 km, 74.1° (Epoch: 01 July)

Event Time Altitude Azimuth Distance (km) Brightness Sun altitude
Exits shadow 00:41:08 28° 238° (WSW) 1,370 4.4 -18.4°
Maximum altitude 00:43:30 49° 297° (WNW) 962 4.0 -18.3°
Drops below altitude 10° 00:48:28 10° 12° (NNE) 2,265 7.2 -17.9°
Sets 00:50:54 0° 18° (NNE) 3,192 8.4 -17.7°
